Location Code,Date,AirT3m,Flag,RH3m,Flag,SwRadIn,Flag,SwRadOut,Flag,WDir,Flag,WDirStD,Flag,WSpd,Flag,WSpdMax,Flag,WSpdMin,Flag,PAR,Flag,SoilT5cm,Flag,SoilT10cm,Flag,SurfChange(cm),Flag,Pressure,Flag
CATM,1/1/2006 0:00,-0.25,,77.9,,26.8,,1.5,,,M,,M,,M,,M,,M,73.7,,2.18,,3.13,,-1,,998,
CATM,1/1/2006 0:15,-0.41,,79,,29.1,,1.8,,,M,,M,,M,,M,,M,77.3,,2,,3.05,,-1,,998,
CATM,1/1/2006 0:30,-0.42,,79.4,,33.2,,2.1,,,M,,M,,M,,M,,M,84,,1.84,,2.97,,-1,,998,
CATM,1/1/2006 0:45,-0.46,,79.1,,29.9,,1.9,,,M,,M,,M,,M,,M,76.1,,1.73,,2.87,,-1,,998,
CATM,1/1/2006 1:00,-0.3,,77.4,,25.4,,1.7,,,M,,M,,M,,M,,M,66.2,,1.62,,2.78,,-1.1,,998,
CATM,1/1/2006 1:15,-0.06,,74.3,,20.8,,1.4,,,M,,M,,M,,M,,M,57.5,,1.53,,2.7,,-1.1,,998,
CATM,1/1/2006 1:30,-0.01,,73.6,,20,,1.2,,,M,,M,,M,,M,,M,55.6,,1.48,,2.61,,-1.1,,998,
CATM,1/1/2006 1:45,0.14,,71.1,,15.7,,0.9,,,M,,M,,M,,M,,M,48.8,,1.41,,2.53,,-1.1,,998,
CATM,1/1/2006 2:00,0.11,,71.5,,16.5,,1,,,M,,M,,M,,M,,M,52.2,,1.38,,2.46,,-1.4,,998,
CATM,1/1/2006 2:15,-0.04,,72.8,,30.4,,2,,,M,,M,,M,,M,,M,77,,1.31,,2.39,,-1.4,,998,
CATM,1/1/2006 2:30,-0.25,,74.4,,39.1,,2.6,,,M,,M,,M,,M,,M,92.9,,1.25,,2.33,,-1.4,,998,
CATM,1/1/2006 2:45,-0.19,,73.2,,33.6,,2.2,,,M,,M,,M,,M,,M,85.3,,1.22,,2.26,,-1.4,,998,
CATM,1/1/2006 3:00,-0.22,,73.8,,49.5,,3.4,,,M,,M,,M,,M,,M,116.8,,1.16,,2.2,,-1.3,,998,
CATM,1/1/2006 3:15,-0.12,,73.4,,77.7,,5.2,,,M,,M,,M,,M,,M,168.5,,1.14,,2.14,,-1.3,,998,
CATM,1/1/2006 3:30,0.23,,69.7,,96.9,,6.1,,,M,,M,,M,,M,,M,203.4,,1.19,,2.08,,-1.3,,997,
CATM,1/1/2006 3:45,0.3,,68.2,,65.2,,4.1,,,M,,M,,M,,M,,M,151.5,,1.32,,2.05,,-1.3,,997
CATM,1/1/2006 4:00,-0.16,,72.1,,66.9,,4.3,,,M,,M,,M,,M,,M,155.6,,1.44,,2.02,,-1.4,,997
CATM,1/1/2006 4:15,-0.41,,76.3,,71.6,,4.7,,,M,,M,,M,,M,,M,167.2,,1.43,,2.01,,-1.4,,997
CATM,1/1/2006 4:30,0.07,,71.1,,69.4,,4.6,,,M,,M,,M,,M,,M,167.1,,1.36,,2,,-1.4,,997
CATM,1/1/2006 4:45,0.12,,70.9,,67.1,,4.5,,,M,,M,,M,,M,,M,165.7,,1.4,,1.98,,-1.4,,997
CATM,1/1/2006 5:00,-0.09,,72.8,,74,,5,,,M,,M,,M,,M,,M,183.2,,1.45,,1.96,,-1.2,,997
CATM,1/1/2006 5:15,0.18,,70.9,,80.3,,5.4,,,M,,M,,M,,M,,M,201.2,,1.48,,1.95,,-1.2,,997
CATM,1/1/2006 5:30,0.59,,65.1,,90.7,,6.2,,,M,,M,,M,,M,,M,227.7,,1.58,,1.94,,-1.2,,997
CATM,1/1/2006 5:45,0.55,,64.7,,104.7,,7.2,,,M,,M,,M,,M,,M,260.3,,1.73,,1.94,,-1.2,,997
CATM,1/1/2006 6:00,-0.33,,76.5,,104.1,,7.3,,,M,,M,,M,,M,,M,263.9,,1.87,,1.95,,-1.3,,997
CATM,1/1/2006 6:15,-0.55,,78.7,,96.9,,6.7,,,M,,M,,M,,M,,M,253.7,,1.9,,1.97,,-1.3,,997
CATM,1/1/2006 6:30,-0.08,,74.3,,98.3,,6.9,,,M,,M,,M,,M,,M,258.3,,1.87,,1.99,,-1.3,,997
CATM,1/1/2006 6:45,0.02,,72.2,,99.9,,6.9,,,M,,M,,M,,M,,M,262.8,,1.91,,2,,-1.3,,997
CATM,1/1/2006 7:00,0.09,,73.8,,114.8,,8,,,M,,M,,M,,M,,M,298.3,,2.05,,2.01,,-1.3,,997
CATM,1/1/2006 7:15,0.19,,73.1,,127.1,,8.9,,,M,,M,,M,,M,,M,328.1,,2.23,,2.03,,-1.3,,997
CATM,1/1/2006 7:30,0.18,,73.7,,121,,8.6,,,M,,M,,M,,M,,M,320.8,,2.45,,2.07,,-1.3,,997
CATM,1/1/2006 7:45,0,,75.5,,132,,9.3,,,M,,M,,M,,M,,M,348.3,,2.65,,2.11,,-1.3,,997
CATM,1/1/2006 8:00,0.01,,76.2,,138.1,,9.6,,,M,,M,,M,,M,,M,368,,2.83,,2.18,,-1.1,,997
CATM,1/1/2006 8:15,-0.14,,75.8,,151.8,,10.8,,,M,,M,,M,,M,,M,405.2,,2.99,,2.24,,-1.1,,997
CATM,1/1/2006 8:30,0.18,,73.7,,180,,13,,,M,,M,,M,,M,,M,470.8,,3.18,,2.31,,-1.1,,997
CATM,1/1/2006 8:45,0.09,,75.1,,201.7,,14.5,,,M,,M,,M,,M,,M,517.1,,3.4,,2.39,,-1.1,,997
CATM,1/1/2006 9:00,0.18,,75.6,,243.8,,17.7,,,M,,M,,M,,M,,M,608.3,,3.62,,2.47,,-1,,997
CATM,1/1/2006 9:15,0.18,,76.2,,243.1,,17.8,,,M,,M,,M,,M,,M,608.4,,3.85,,2.56,,-1,,997
CATM,1/1/2006 9:30,0.28,,74,,262.4,,18.7,,,M,,M,,M,,M,,M,651.6,,4.18,,2.66,,-1,,997
CATM,1/1/2006 9:45,0.51,,73,,285.6,,20.5,,,M,,M,,M,,M,,M,707.8,,4.47,,2.77,,-1,,996
CATM,1/1/2006 10:00,-0.27,,77.5,,284.2,,21.1,,,M,,M,,M,,M,,M,708.4,,4.74,,2.9,,-0.9,,996
CATM,1/1/2006 10:15,-0.19,,78.4,,282.7,,21,,,M,,M,,M,,M,,M,711.7,,4.84,,3.03,,-0.9,,996
CATM,1/1/2006 10:30,-0.24,,78.2,,285,,21.2,,,M,,M,,M,,M,,M,729.2,,4.92,,3.15,,-0.9,,996
CATM,1/1/2006 10:45,-0.23,,78.4,,318.1,,23.7,,,M,,M,,M,,M,,M,809.1,,5.01,,3.25,,-0.9,,996
CATM,1/1/2006 11:00,-0.27,,79.2,,343.6,,25.7,,,M,,M,,M,,M,,M,868.6,,5.1,,3.35,,-0.9,,996
CATM,1/1/2006 11:15,-0.23,,78.7,,316.1,,23.7,,,M,,M,,M,,M,,M,812.1,,5.25,,3.44,,-0.9,,996
CATM,1/1/2006 11:30,-0.23,,79.3,,325.4,,24.3,,,M,,M,,M,,M,,M,837.9,,5.38,,3.53,,-0.9,,996
CATM,1/1/2006 11:45,-0.08,,77.5,,288.4,,21.2,,,M,,M,,M,,M,,M,746.3,,5.5,,3.62,,-0.9,,996
CATM,1/1/2006 12:00,0.1,,77.1,,278,,20.4,,,M,,M,,M,,M,,M,725.7,,5.54,,3.71,,-1.2,,996
CATM,1/1/2006 12:15,0.08,,79.3,,292,,19.9,,,M,,M,,M,,M,,M,761.8,,5.58,,3.79,,-1.2,,995
CATM,1/1/2006 12:30,0.28,,80.7,,327.4,,20.5,,,M,,M,,M,,M,,M,862,,5.69,,3.87,,-1.2,,995
CATM,1/1/2006 12:45,0.52,,80.4,,311.2,,21.7,,,M,,M,,M,,M,,M,822.3,,5.91,,3.94,,-1.2,,995
CATM,1/1/2006 13:00,0.4,,80.6,,290.1,,19.1,,,M,,M,,M,,M,,M,770.9,,6.16,,4.02,,-0.7,,995
CATM,1/1/2006 13:15,0.22,,84,,312.9,,19.1,,,M,,M,,M,,M,,M,830,,6.31,,4.12,,-0.7,,995
CATM,1/1/2006 13:30,0.66,,80.9,,343.3,,23,,,M,,M,,M,,M,,M,903.8,,6.43,,4.22,,-0.7,,995
CATM,1/1/2006 13:45,0.94,,75.9,,331.2,,22.8,,,M,,M,,M,,M,,M,877.1,,6.68,,4.32,,-0.7,,995
CATM,1/1/2006 14:00,0.69,,76.8,,322.4,,19.3,,,M,,M,,M,,M,,M,856.1,,6.91,,4.42,,-0.8,,995
CATM,1/1/2006 14:15,0.82,,78.6,,396.6,,23.5,,,M,,M,,M,,M,,M,1015.1,,7.07,,4.54,,-0.8,,994
CATM,1/1/2006 14:30,0.83,,75.5,,430.9,,29.2,,,M,,M,,M,,M,,M,1073,,7.35,,4.65,,-0.8,,994
CATM,1/1/2006 14:45,0.99,,71.9,,405.4,,29.8,,,M,,M,,M,,M,,M,1016.5,,7.67,,4.78,,-0.8,,994
CATM,1/1/2006 15:00,1.36,,73.3,,369.4,,27.2,,,M,,M,,M,,M,,M,951,,8.03,,4.92,,-0.6,,994
CATM,1/1/2006 15:15,1.4,,70.7,,434.4,,32.7,,,M,,M,,M,,M,,M,1092.3,,8.32,,5.07,,-0.6,,994
CATM,1/1/2006 15:30,1.09,,72.4,,434,,32.8,,,M,,M,,M,,M,,M,1075.7,,8.64,,5.24,,-0.6,,994
CATM,1/1/2006 15:45,1.06,,76.6,,370.1,,27.6,,,M,,M,,M,,M,,M,938.1,,8.95,,5.41,,-0.6,,994
CATM,1/1/2006 16:00,0.59,,78.3,,351,,25.7,,,M,,M,,M,,M,,M,887.3,,8.94,,5.59,,-0.3,,994
CATM,1/1/2006 16:15,0.5,,78.4,,351.8,,25.1,,,M,,M,,M,,M,,M,890.6,,8.64,,5.75,,-0.3,,993
CATM,1/1/2006 16:30,-0.08,,79.7,,383.7,,28,,,M,,M,,M,,M,,M,953.8,,8.3,,5.85,,-0.3,,993
CATM,1/1/2006 16:45,-0.19,,80.1,,375.6,,27.1,,,M,,M,,M,,M,,M,935.5,,7.78,,5.89,,-0.3,,993
CATM,1/1/2006 17:00,-0.45,,78.7,,362.5,,25.7,,,M,,M,,M,,M,,M,910.5,,7.28,,5.87,,-0.9,,993
CATM,1/1/2006 17:15,-0.22,,79.1,,311.5,,21.9,,,M,,M,,M,,M,,M,803,,6.81,,5.81,,-0.9,,993
CATM,1/1/2006 17:30,-0.62,,80.2,,277.1,,18.9,,,M,,M,,M,,M,,M,712,,6.39,,5.72,,-0.9,,993
CATM,1/1/2006 17:45,-0.63,,81,,311,,20.6,,,M,,M,,M,,M,,M,787.6,,5.91,,5.6,,-0.9,,993
CATM,1/1/2006 18:00,-0.13,,76.1,,283.7,,18.7,,,M,,M,,M,,M,,M,725.5,,5.63,,5.47,,-0.9,,993
CATM,1/1/2006 18:15,0.12,,74,,262,,16,,,M,,M,,M,,M,,M,670.2,,5.5,,5.34,,-0.9,,993
CATM,1/1/2006 18:30,0.34,,75.4,,245.4,,15.5,,,M,,M,,M,,M,,M,633.2,,5.55,,5.23,,-0.9,,993
CATM,1/1/2006 18:45,0,,78.2,,263,,17.1,,,M,,M,,M,,M,,M,660.3,,5.7,,5.14,,-0.9,,992
CATM,1/1/2006 19:00,0,,77.1,,203.3,,13.7,,,M,,M,,M,,M,,M,523.4,,5.81,,5.09,,-0.9,,992
CATM,1/1/2006 19:15,-0.54,,80.8,,201.9,,13.2,,,M,,M,,M,,M,,M,511.8,,5.65,,5.06,,-0.9,,992
CATM,1/1/2006 19:30,-0.59,,82,,220.4,,14.1,,,M,,M,,M,,M,,M,540.6,,5.38,,5.02,,-0.9,,992
CATM,1/1/2006 19:45,-0.54,,80.6,,161.5,,10.3,,,M,,M,,M,,M,,M,402.6,,5.13,,4.97,,-0.9,,992
CATM,1/1/2006 20:00,-0.16,,76.5,,156.9,,10.3,,,M,,M,,M,,M,,M,387.3,,4.9,,4.89,,-1.2,,992
CATM,1/1/2006 20:15,-0.11,,74.3,,252,,17.1,,,M,,M,,M,,M,,M,576.6,,4.79,,4.8,,-1.2,,992
CATM,1/1/2006 20:30,-0.07,,73.5,,233.6,,16.5,,,M,,M,,M,,M,,M,542.1,,4.95,,4.72,,-1.2,,992
CATM,1/1/2006 20:45,0.2,,71.6,,160,,11.7,,,M,,M,,M,,M,,M,393,,5.17,,4.66,,-1.2,,992
CATM,1/1/2006 21:00,0.11,,73.1,,134.1,,10,,,M,,M,,M,,M,,M,335.1,,5.23,,4.64,,-0.8,,992
CATM,1/1/2006 21:15,0.2,,71,,131.3,,9.8,,,M,,M,,M,,M,,M,324,,5.1,,4.63,,-0.8,,992
CATM,1/1/2006 21:30,0.2,,70.2,,104.7,,7.9,,,M,,M,,M,,M,,M,267.4,,5.09,,4.61,,-0.8,,992
CATM,1/1/2006 21:45,0.21,,68.5,,103.7,,7.8,,,M,,M,,M,,M,,M,261.2,,5.03,,4.59,,-0.8,,991
CATM,1/1/2006 22:00,-0.01,,71.9,,100.1,,7.5,,,M,,M,,M,,M,,M,248.9,,4.89,,4.57,,-0.9,,991
CATM,1/1/2006 22:15,0.31,,66.8,,86.5,,6.6,,,M,,M,,M,,M,,M,216.3,,4.72,,4.53,,-0.9,,991
CATM,1/1/2006 22:30,0.52,,64.4,,95.9,,7.2,,,M,,M,,M,,M,,M,229.9,,4.56,,4.48,,-0.9,,991
CATM,1/1/2006 22:45,-0.53,,75.4,,89.4,,6.7,,,M,,M,,M,,M,,M,214.2,,4.42,,4.42,,-0.9,,991
CATM,1/1/2006 23:00,-0.06,,69.6,,76.1,,5.7,,,M,,M,,M,,M,,M,184.3,,4.19,,4.35,,-1,,991
CATM,1/1/2006 23:15,-0.41,,73.4,,70.7,,5.3,,,M,,M,,M,,M,,M,170.5,,4.03,,4.27,,-1,,991
CATM,1/1/2006 23:30,-0.05,,67.9,,70.3,,5.3,,,M,,M,,M,,M,,M,165.4,,3.88,,4.19,,-1,,991
CATM,1/1/2006 23:45,-0.34,,71.3,,63.1,,4.7,,,M,,M,,M,,M,,M,149.6,,3.82,,4.11,,-1,,990
CATM,1/2/2006 0:00,-0.62,,75.5,,50.2,,3.7,,,M,,M,,M,,M,,M,122.5,,3.69,,4.03,,-1.1,,990
CATM,1/2/2006 0:15,-0.61,,74.6,,29.2,,2.1,,,M,,M,,M,,M,,M,81.5,,3.47,,3.95,,-1.1,,990
CATM,1/2/2006 0:30,-0.62,,74.6,,26.2,,1.9,,,M,,M,,M,,M,,M,74.3,,3.22,,3.87,,-1.1,,990
CATM,1/2/2006 0:45,-0.6,,74.1,,20.5,,1.4,,,M,,M,,M,,M,,M,62.5,,2.98,,3.77,,-1.1,,990
CATM,1/2/2006 1:00,-0.43,,71.5,,16.8,,1.2,,,M,,M,,M,,M,,M,55.3,,2.78,,3.66,,-1.2,,990
CATM,1/2/2006 1:15,-0.43,,71.5,,19.6,,1.4,,,M,,M,,M,,M,,M,59,,2.61,,3.55,,-1.2,,990
CATM,1/2/2006 1:30,-0.41,,70.9,,25.8,,1.8,,,M,,M,,M,,M,,M,68.8,,2.46,,3.44,,-1.2,,990
CATM,1/2/2006 1:45,-0.48,,71.3,,24.9,,1.7,,,M,,M,,M,,M,,M,66.6,,2.36,,3.33,,-1.2,,990
CATM,1/2/2006 2:00,-0.4,,69.8,,22.7,,1.6,,,M,,M,,M,,M,,M,63,,2.31,,3.23,,-1.2,,990
CATM,1/2/2006 2:15,-0.68,,72.4,,22.1,,1.6,,,M,,M,,M,,M,,M,61.9,,2.25,,3.14,,-1.2,,990
CATM,1/2/2006 2:30,-0.87,,74,,23.6,,1.6,,,M,,M,,M,,M,,M,64.8,,2.19,,3.06,,-1.2,,989
CATM,1/2/2006 2:45,-0.81,,74.4,,27.5,,1.9,,,M,,M,,M,,M,,M,73.1,,2.08,,2.98,,-1.2,,989
CATM,1/2/2006 3:00,-0.81,,73.7,,31.2,,2.2,,,M,,M,,M,,M,,M,81.4,,2,,2.9,,-1.1,,989
CATM,1/2/2006 3:15,-1.1,,76.8,,38.3,,2.7,,,M,,M,,M,,M,,M,96.3,,1.92,,2.82,,-1.1,,989
CATM,1/2/2006 3:30,-1.22,,78,,45.6,,3.1,,,M,,M,,M,,M,,M,111.8,,1.79,,2.75,,-1.1,,989
CATM,1/2/2006 3:45,-1.05,,76.4,,45.1,,3.1,,,M,,M,,M,,M,,M,112.9,,1.7,,2.67,,-1.1,,989
CATM,1/2/2006 4:00,-1.25,,78.2,,45.7,,3.1,,,M,,M,,M,,M,,M,115.2,,1.64,,2.6,,-1,,988
CATM,1/2/2006 4:15,-1.16,,77.5,,44.3,,3.1,,,M,,M,,M,,M,,M,114.3,,1.56,,2.52,,-1,,989
CATM,1/2/2006 4:30,-1.32,,78.6,,53.7,,3.7,,,M,,M,,M,,M,,M,134.8,,1.49,,2.45,,-1,,988
CATM,1/2/2006 4:45,-1.34,,79.6,,65.7,,4.5,,,M,,M,,M,,M,,M,161.8,,1.46,,2.39,,-1,,988
CATM,1/2/2006 5:00,-1.23,,78.1,,70.7,,5,,,M,,M,,M,,M,,M,174.8,,1.42,,2.33,,-1.3,,988
CATM,1/2/2006 5:15,-1.26,,77.8,,71.8,,5.1,,,M,,M,,M,,M,,M,179.8,,1.4,,2.26,,-1.3,,988
CATM,1/2/2006 5:30,-1.08,,75.7,,78.8,,5.5,,,M,,M,,M,,M,,M,195.7,,1.38,,2.21,,-1.3,,988
CATM,1/2/2006 5:45,-1.07,,75.3,,90,,6.4,,,M,,M,,M,,M,,M,221.3,,1.38,,2.17,,-1.3,,988
CATM,1/2/2006 6:00,-1.08,,75.1,,100.3,,7.2,,,M,,M,,M,,M,,M,245.5,,1.41,,2.12,,-1.2,,988
CATM,1/2/2006 6:15,-1.08,,76,,107.1,,7.7,,,M,,M,,M,,M,,M,262.9,,1.46,,2.09,,-1.2,,988
CATM,1/2/2006 6:30,-0.96,,74.9,,115.8,,8.4,,,M,,M,,M,,M,,M,284.6,,1.53,,2.06,,-1.2,,988
CATM,1/2/2006 6:45,-1.12,,76.9,,133.1,,9.6,,,M,,M,,M,,M,,M,323.6,,1.63,,2.05,,-1.2,,988
CATM,1/2/2006 7:00,-0.79,,73.8,,147.2,,10.7,,,M,,M,,M,,M,,M,357.8,,1.72,,2.04,,-1.1,,988
CATM,1/2/2006 7:15,-1.11,,76.8,,169.1,,12.3,,,M,,M,,M,,M,,M,406.3,,1.91,,2.04,,-1.1,,988
CATM,1/2/2006 7:30,-0.99,,76.3,,197,,14.4,,,M,,M,,M,,M,,M,472,,2.08,,2.06,,-1.1,,988
CATM,1/2/2006 7:45,-0.72,,74.2,,220.1,,16.3,,,M,,M,,M,,M,,M,531,,2.27,,2.09,,-1.1,,988
CATM,1/2/2006 8:00,-0.59,,73.5,,268.4,,20,,,M,,M,,M,,M,,M,634.3,,2.53,,2.13,,-1,,988
CATM,1/2/2006 8:15,-0.34,,71.9,,283.7,,21.3,,,M,,M,,M,,M,,M,672,,2.87,,2.19,,-1,,988
CATM,1/2/2006 8:30,-0.57,,74.8,,284.1,,21.4,,,M,,M,,M,,M,,M,676.4,,3.27,,2.27,,-1,,988
CATM,1/2/2006 8:45,-0.32,,73.1,,298.3,,22.5,,,M,,M,,M,,M,,M,711.1,,3.58,,2.38,,-1,,988
CATM,1/2/2006 9:00,-0.34,,73.4,,308.9,,23.6,,,M,,M,,M,,M,,M,735.5,,3.89,,2.5,,-1.1,,988
CATM,1/2/2006 9:15,-0.26,,73.5,,337.3,,25.7,,,M,,M,,M,,M,,M,794.3,,4.19,,2.63,,-1.1,,988
CATM,1/2/2006 9:30,-0.31,,73.4,,363.9,,27.7,,,M,,M,,M,,M,,M,854.8,,4.47,,2.77,,-1.1,,987
CATM,1/2/2006 9:45,-0.12,,72.8,,475.6,,36.1,,,M,,M,,M,,M,,M,1089.5,,4.74,,2.91,,-1.1,,987
CATM,1/2/2006 10:00,-0.08,,72.7,,404.7,,31.1,,,M,,M,,M,,M,,M,960.2,,5.06,,3.05,,-0.7,,987
CATM,1/2/2006 10:15,-0.12,,73.5,,534.4,,40.6,,,M,,M,,M,,M,,M,1221.7,,5.34,,3.2,,-0.7,,987
CATM,1/2/2006 10:30,0.26,,70,,479.8,,36.9,,,M,,M,,M,,M,,M,1111.6,,5.68,,3.35,,-0.7,,987
CATM,1/2/2006 10:45,0.29,,70.1,,520.1,,39.9,,,M,,M,,M,,M,,M,1198.3,,6.11,,3.52,,-0.7,,987
CATM,1/2/2006 11:00,0.69,,68.8,,526.6,,40.7,,,M,,M,,M,,M,,M,1217.6,,6.6,,3.7,,-0.3,,987
CATM,1/2/2006 11:15,0.22,,71.9,,579.2,,45.1,,,M,,M,,M,,M,,M,1319.5,,7.11,,3.89,,-0.3,,987
CATM,1/2/2006 11:30,0.29,,72.1,,589.9,,46.2,,,M,,M,,M,,M,,M,1345.7,,7.43,,4.11,,-0.3,,987
CATM,1/2/2006 11:45,0.3,,72.8,,500.2,,39.7,,,M,,M,,M,,M,,M,1165.3,,7.66,,4.33,,-0.3,,987
CATM,1/2/2006 12:00,0.55,,70.4,,535.9,,42.3,,,M,,M,,M,,M,,M,1243.8,,7.78,,4.54,,-0.9,,987
CATM,1/2/2006 12:15,0.53,,70.3,,561.9,,44.3,,,M,,M,,M,,M,,M,1308.5,,8.14,,4.73,,-0.9,,987
CATM,1/2/2006 12:30,0.18,,73.2,,650.7,,51.4,,,M,,M,,M,,M,,M,1490.3,,8.47,,4.92,,-0.9,,987
CATM,1/2/2006 12:45,0.62,,70.6,,685.9,,54.3,,,M,,M,,M,,M,,M,1564.7,,8.76,,5.12,,-0.9,,987
CATM,1/2/2006 13:00,1.35,,66.1,,783,,62.5,,,M,,M,,M,,M,,M,1750.7,,9.29,,5.31,,0.2,,987
CATM,1/2/2006 13:15,1.5,,63,,615.4,,49.5,,,M,,M,,M,,M,,M,1427,,10.05,,5.53,,0.2,,987
CATM,1/2/2006 13:30,1.12,,63.9,,642.1,,51.8,,,M,,M,,M,,M,,M,1473.8,,10.63,,5.8,,0.2,,987
CATM,1/2/2006 13:45,1.36,,64,,614.3,,49.6,,,M,,M,,M,,M,,M,1420.1,,10.95,,6.09,,0.2,,987
CATM,1/2/2006 14:00,1.14,,66,,682.3,,55.3,,,M,,M,,M,,M,,M,1555.1,,11.29,,6.38,,-0.7,,987
CATM,1/2/2006 14:15,1.09,,66.2,,603.5,,48.6,,,M,,M,,M,,M,,M,1409.1,,11.61,,6.65,,-0.7,,987
CATM,1/2/2006 14:30,1.48,,64,,659.8,,53.4,,,M,,M,,M,,M,,M,1517.9,,11.86,,6.91,,-0.7,,987
CATM,1/2/2006 14:45,1.37,,63.5,,582,,47,,,M,,M,,M,,M,,M,1366.4,,12.16,,7.16,,-0.7,,987
CATM,1/2/2006 15:00,1.27,,65.2,,611.4,,49.1,,,M,,M,,M,,M,,M,1421.5,,12.35,,7.41,,-0.4,,987
CATM,1/2/2006 15:15,1.24,,65,,682.5,,55.1,,,M,,M,,M,,M,,M,1559.2,,12.52,,7.62,,-0.4,,987
CATM,1/2/2006 15:30,1.64,,63.5,,602.8,,48.8,,,M,,M,,M,,M,,M,1410.5,,12.71,,7.84,,-0.4,,987
CATM,1/2/2006 15:45,1.68,,61.7,,529.3,,42.8,,,M,,M,,M,,M,,M,1274.1,,13.02,,8.04,,-0.4,,987
CATM,1/2/2006 16:00,1.23,,64.7,,590.7,,47.9,,,M,,M,,M,,M,,M,1378.8,,13.19,,8.24,,0,,987
CATM,1/2/2006 16:15,1.37,,65.6,,517.7,,41.9,,,M,,M,,M,,M,,M,1232.8,,13.23,,8.45,,0,,987
CATM,1/2/2006 16:30,1.44,,67.2,,508.8,,40.8,,,M,,M,,M,,M,,M,1213.5,,13.23,,8.61,,0,,987
CATM,1/2/2006 16:45,0.98,,69.4,,483.4,,39.2,,,M,,M,,M,,M,,M,1158.4,,13.23,,8.76,,0,,987
CATM,1/2/2006 17:00,0.95,,69.4,,425.7,,35,,,M,,M,,M,,M,,M,1034.4,,12.96,,8.89,,-0.2,,987
CATM,1/2/2006 17:15,1.54,,63.8,,387.8,,32.1,,,M,,M,,M,,M,,M,940.5,,12.6,,8.98,,-0.2,,987
CATM,1/2/2006 17:30,1.51,,63.9,,411.3,,33.6,,,M,,M,,M,,M,,M,976.6,,12.42,,9.02,,-0.2,,987
CATM,1/2/2006 17:45,1.63,,63.2,,399.1,,32.5,,,M,,M,,M,,M,,M,944.1,,12.35,,9.04,,-0.2,,987
CATM,1/2/2006 18:00,1.63,,64.6,,371.6,,30.6,,,M,,M,,M,,M,,M,875.2,,12.31,,9.06,,-0.2,,987
CATM,1/2/2006 18:15,1.53,,64.7,,414.7,,34.4,,,M,,M,,M,,M,,M,941.4,,12.21,,9.08,,-0.2,,987
CATM,1/2/2006 18:30,1.25,,68.4,,355.1,,29.8,,,M,,M,,M,,M,,M,808.3,,12.09,,9.09,,-0.2,,987
CATM,1/2/2006 18:45,0.9,,70,,326.5,,27.4,,,M,,M,,M,,M,,M,745.2,,11.85,,9.1,,-0.2,,987
CATM,1/2/2006 19:00,0.25,,74.9,,361.8,,30.2,,,M,,M,,M,,M,,M,808,,11.6,,9.08,,-0.5,,987
CATM,1/2/2006 19:15,0.12,,77.6,,332.1,,27.4,,,M,,M,,M,,M,,M,749.6,,11.48,,9.05,,-0.5,,987
CATM,1/2/2006 19:30,-0.14,,80.2,,337.8,,27.7,,,M,,M,,M,,M,,M,753,,11.44,,9.03,,-0.5,,987
CATM,1/2/2006 19:45,0.08,,78.2,,328.3,,27.1,,,M,,M,,M,,M,,M,724.9,,11.42,,9,,-0.5,,987
CATM,1/2/2006 20:00,0.18,,75.8,,198.2,,16.6,,,M,,M,,M,,M,,M,475.8,,11.42,,8.98,,-0.4,,987
CATM,1/2/2006 20:15,-0.36,,80.4,,218.6,,17.9,,,M,,M,,M,,M,,M,510.2,,11.19,,8.97,,-0.4,,987
CATM,1/2/2006 20:30,0.57,,72.5,,243.8,,19.7,,,M,,M,,M,,M,,M,555.5,,10.89,,8.94,,-0.4,,987
CATM,1/2/2006 20:45,0.9,,71.2,,240.3,,19.4,,,M,,M,,M,,M,,M,543.4,,10.64,,8.89,,-0.4,,987
CATM,1/2/2006 21:00,1.07,,68.4,,221.7,,18,,,M,,M,,M,,M,,M,500.3,,10.44,,8.82,,-0.9,,987
CATM,1/2/2006 21:15,0.72,,71.4,,185.1,,15.1,,,M,,M,,M,,M,,M,425.8,,10.19,,8.74,,-0.9,,987
CATM,1/2/2006 21:30,0.4,,73.7,,177.4,,14.4,,,M,,M,,M,,M,,M,404.1,,9.77,,8.65,,-0.9,,987
CATM,1/2/2006 21:45,0.22,,75.8,,151.3,,12.1,,,M,,M,,M,,M,,M,351.8,,9.27,,8.54,,-0.9,,987
CATM,1/2/2006 22:00,-0.09,,79.6,,146.5,,11.5,,,M,,M,,M,,M,,M,335.5,,8.75,,8.41,,-0.7,,987
CATM,1/2/2006 22:15,-0.22,,80.4,,132.3,,10.3,,,M,,M,,M,,M,,M,302.8,,8.28,,8.25,,-0.7,,987
CATM,1/2/2006 22:30,-0.37,,81.9,,113.6,,8.8,,,M,,M,,M,,M,,M,261,,7.82,,8.06,,-0.7,,987
CATM,1/2/2006 22:45,-0.39,,82.5,,116.6,,9,,,M,,M,,M,,M,,M,258.4,,7.39,,7.86,,-0.7,,987
CATM,1/2/2006 23:00,-0.11,,79.3,,118.8,,9.1,,,M,,M,,M,,M,,M,254.4,,7.04,,7.65,,-1,,988
CATM,1/2/2006 23:15,-0.16,,77.6,,96.4,,7.4,,,M,,M,,M,,M,,M,210.7,,6.76,,7.45,,-1,,988
CATM,1/2/2006 23:30,-0.6,,81.6,,71.9,,5.6,,,M,,M,,M,,M,,M,163.8,,6.47,,7.26,,-1,,988
CATM,1/2/2006 23:45,-0.71,,82.6,,55.6,,4.2,,,M,,M,,M,,M,,M,131,,6.11,,7.07,,-1,,988
CATM,1/3/2006 0:00,-0.76,,82.7,,46.3,,3.5,,,M,,M,,M,,M,,M,112.1,,5.75,,6.88,,-1.1,,988
CATM,1/3/2006 0:15,-0.71,,81.9,,34.8,,2.6,,,M,,M,,M,,M,,M,89.6,,5.44,,6.68,,-1.1,,988
CATM,1/3/2006 0:30,-0.6,,80.6,,26.5,,1.9,,,M,,M,,M,,M,,M,72.8,,5.16,,6.48,,-1.1,,988
CATM,1/3/2006 0:45,-0.72,,81.1,,22.8,,1.6,,,M,,M,,M,,M,,M,64.3,,4.9,,6.29,,-1.1,,988
CATM,1/3/2006 1:00,-0.82,,81.7,,22.3,,1.5,,,M,,M,,M,,M,,M,61.7,,4.65,,6.11,,-1.3,,988
CATM,1/3/2006 1:15,-1.01,,82.9,,22.8,,1.5,,,M,,M,,M,,M,,M,62.5,,4.37,,5.92,,-1.3,,988
CATM,1/3/2006 1:30,-1.03,,82.9,,21.4,,1.4,,,M,,M,,M,,M,,M,58.9,,4.08,,5.74,,-1.3,,988
CATM,1/3/2006 1:45,-0.94,,81.8,,24.8,,1.6,,,M,,M,,M,,M,,M,64.2,,3.84,,5.56,,-1.3,,988
CATM,1/3/2006 2:00,-0.87,,80.9,,30.8,,2,,,M,,M,,M,,M,,M,74.7,,3.64,,5.37,,-1.3,,988
CATM,1/3/2006 2:15,-0.93,,82,,37.4,,2.5,,,M,,M,,M,,M,,M,86.8,,3.47,,5.2,,-1.3,,988
CATM,1/3/2006 2:30,-0.87,,81.2,,40.2,,2.7,,,M,,M,,M,,M,,M,92.9,,3.33,,5.03,,-1.3,,988
CATM,1/3/2006 2:45,-0.78,,80.3,,43.3,,2.9,,,M,,M,,M,,M,,M,99.2,,3.22,,4.88,,-1.3,,989
CATM,1/3/2006 3:00,-0.92,,81,,48.1,,3.2,,,M,,M,,M,,M,,M,109.1,,3.13,,4.74,,-1.2,,989
CATM,1/3/2006 3:15,-1.02,,82.2,,52.3,,3.4,,,M,,M,,M,,M,,M,118.2,,3.04,,4.6,,-1.2,,989
CATM,1/3/2006 3:30,-0.7,,79.7,,61.4,,3.8,,,M,,M,,M,,M,,M,136.4,,2.95,,4.48,,-1.2,,989
CATM,1/3/2006 3:45,-0.78,,81.2,,66.6,,3.9,,,M,,M,,M,,M,,M,148.2,,2.93,,4.36,,-1.2,,989
CATM,1/3/2006 4:00,-0.93,,82.3,,73.2,,4.3,,,M,,M,,M,,M,,M,162.1,,2.9,,4.25,,-1,,989
CATM,1/3/2006 4:15,-0.66,,78.6,,72.4,,4.2,,,M,,M,,M,,M,,M,165,,2.89,,4.16,,-1,,989
CATM,1/3/2006 4:30,-0.75,,80.5,,75,,4.3,,,M,,M,,M,,M,,M,173.7,,2.89,,4.07,,-1,,989
CATM,1/3/2006 4:45,-0.79,,81.5,,73,,4.3,,,M,,M,,M,,M,,M,174.8,,2.89,,4,,-1,,989
CATM,1/3/2006 5:00,-0.71,,81,,70.3,,4.4,,,M,,M,,M,,M,,M,174.4,,2.88,,3.93,,-1,,989
CATM,1/3/2006 5:15,-1.02,,83,,84.6,,5.3,,,M,,M,,M,,M,,M,205.5,,2.82,,3.86,,-1,,989
CATM,1/3/2006 5:30,-0.69,,80.5,,97.9,,6.2,,,M,,M,,M,,M,,M,235.4,,2.76,,3.8,,-1,,989
CATM,1/3/2006 5:45,-0.9,,81.9,,111.8,,7,,,M,,M,,M,,M,,M,266.7,,2.8,,3.73,,-1,,989
CATM,1/3/2006 6:00,-1.45,,89.1,,126,,7.7,,,M,,M,,M,,M,,M,298.6,,2.95,,3.68,,-1.3,,990
CATM,1/3/2006 6:15,-1.48,,91.3,,140.6,,8.4,,,M,,M,,M,,M,,M,330.6,,3.11,,3.65,,-1.3,,990
CATM,1/3/2006 6:30,-1.22,,89.7,,170.2,,10.4,,,M,,M,,M,,M,,M,392.6,,3.27,,3.62,,-1.3,,990
CATM,1/3/2006 6:45,-1.2,,87.6,,210.5,,13.5,,,M,,M,,M,,M,,M,475.5,,3.46,,3.62,,-1.3,,990
CATM,1/3/2006 7:00,-1.29,,89.1,,212.1,,14.2,,,M,,M,,M,,M,,M,485,,3.73,,3.63,,-1.3,,990
CATM,1/3/2006 7:15,-1.45,,90,,182.2,,11.8,,,M,,M,,M,,M,,M,432.2,,3.99,,3.66,,-1.3,,990
CATM,1/3/2006 7:30,-1.5,,91.8,,157.2,,9.2,,,M,,M,,M,,M,,M,384.2,,4.16,,3.71,,-1.3,,990
CATM,1/3/2006 7:45,-1.56,,92.7,,181.9,,10.4,,,M,,M,,M,,M,,M,442.3,,4.23,,3.77,,-1.3,,990
CATM,1/3/2006 8:00,-1.48,,92.9,,215.5,,12.9,,,M,,M,,M,,M,,M,513.8,,4.3,,3.82,,-0.7,,990
CATM,1/3/2006 8:15,-1.49,,93,,207.8,,12.6,,,M,,M,,M,,M,,M,502.3,,4.43,,3.86,,-0.7,,990
CATM,1/3/2006 8:30,-1.51,,93.2,,206.5,,12.5,,,M,,M,,M,,M,,M,507.6,,4.56,,3.9,,-0.7,,990
CATM,1/3/2006 8:45,-1.48,,92.6,,234.3,,14,,,M,,M,,M,,M,,M,569.3,,4.66,,3.94,,-0.7,,990
CATM,1/3/2006 9:00,-1.46,,92.4,,268.9,,15.8,,,M,,M,,M,,M,,M,641.5,,4.8,,3.99,,-1.5,,991
CATM,1/3/2006 9:15,-1.45,,91.9,,267.7,,15.4,,,M,,M,,M,,M,,M,641.2,,5.01,,4.04,,-1.5,,991
CATM,1/3/2006 9:30,-1.44,,92.4,,270,,15.3,,,M,,M,,M,,M,,M,645.7,,5.21,,4.1,,-1.5,,991
CATM,1/3/2006 9:45,-1.38,,92.2,,327.1,,19.3,,,M,,M,,M,,M,,M,765.4,,5.38,,4.17,,-1.5,,991
CATM,1/3/2006 10:00,-1.26,,91.9,,294.2,,17.2,,,M,,M,,M,,M,,M,708,,5.63,,4.24,,-0.9,,991
CATM,1/3/2006 10:15,-1.23,,92.8,,304.8,,18.5,,,M,,M,,M,,M,,M,732.8,,5.82,,4.33,,-0.9,,991
CATM,1/3/2006 10:30,-1.07,,92.8,,325.6,,20.7,,,M,,M,,M,,M,,M,778.9,,5.96,,4.42,,-0.9,,991
CATM,1/3/2006 10:45,-0.9,,91.8,,313.6,,21.2,,,M,,M,,M,,M,,M,757.6,,6.16,,4.5,,-0.9,,991
CATM,1/3/2006 11:00,-0.87,,91.5,,289.6,,18.1,,,M,,M,,M,,M,,M,718,,6.4,,4.59,,-0.2,,991
CATM,1/3/2006 11:15,-0.94,,91.4,,331,,21.1,,,M,,M,,M,,M,,M,813.1,,6.6,,4.69,,-0.2,,991
CATM,1/3/2006 11:30,-0.63,,91.2,,370.9,,24,,,M,,M,,M,,M,,M,899,,6.8,,4.79,,-0.2,,991
CATM,1/3/2006 11:45,-0.36,,90.5,,399.1,,25.4,,,M,,M,,M,,M,,M,968.3,,7.05,,4.9,,-0.2,,991
CATM,1/3/2006 12:00,-0.55,,92.2,,353.4,,22.4,,,M,,M,,M,,M,,M,876.7,,7.27,,5.01,,0.1,,991
CATM,1/3/2006 12:15,-0.51,,92.3,,327.6,,19.7,,,M,,M,,M,,M,,M,822.3,,7.42,,5.13,,0.1,,991
CATM,1/3/2006 12:30,-0.45,,92.6,,416,,24.7,,,M,,M,,M,,M,,M,1012.4,,7.5,,5.25,,0.1,,992
CATM,1/3/2006 12:45,-0.32,,91.4,,,B,,B,,M,,M,,M,,M,,M,1017.9,,7.74,,5.35,,0.1,,992
CATM,1/3/2006 13:00,-0.52,,91.7,,314.9,,27.7,,,M,,M,,M,,M,,M,804.1,,8.01,,5.46,,0.1,,992
CATM,1/3/2006 13:15,-0.82,,92.5,,345.8,,30.9,,,M,,M,,M,,M,,M,867.9,,8.09,,5.59,,0.1,,992
CATM,1/3/2006 13:30,-0.66,,92.6,,539.2,,50.2,,,M,,M,,M,,M,,M,1241,,8.14,,5.7,,0.1,,992
CATM,1/3/2006 13:45,-0.24,,90.4,,562.3,,55.3,,,M,,M,,M,,M,,M,1326.4,,8.51,,5.8,,0.1,,992
CATM,1/3/2006 14:00,-0.01,,88.6,,619.1,,62.1,,,M,,M,,M,,M,,M,1425.6,,9.08,,5.91,,-0.5,,992
CATM,1/3/2006 14:15,0.24,,88.2,,506.5,,50.9,,,M,,M,,M,,M,,M,1228.6,,9.64,,6.07,,-0.5,,992
CATM,1/3/2006 14:30,-0.03,,90,,400.9,,38.8,,,M,,M,,M,,M,,M,1023.4,,9.95,,6.27,,-0.5,,992
CATM,1/3/2006 14:45,-0.27,,91.9,,438.2,,40.9,,,M,,M,,M,,M,,M,1078.5,,9.95,,6.47,,-0.5,,992
CATM,1/3/2006 15:00,0.12,,91.6,,418.6,,40.9,,,M,,M,,M,,M,,M,1027.5,,9.95,,6.65,,-0.1,,992
CATM,1/3/2006 15:15,-0.34,,90.5,,319.4,,39.8,,,M,,M,,M,,M,,M,962.8,,10.06,,6.79,,-0.1,,992
CATM,1/3/2006 15:30,-0.35,,82,,300.3,,36.4,,,M,,M,,M,,M,,M,1106,,10.13,,6.92,,-0.1,,992
CATM,1/3/2006 15:45,-0.08,,85.8,,465.7,,53.3,,,M,,M,,M,,M,,M,,B,10.32,,7.04,,-0.1,,992
CATM,1/3/2006 16:00,0.54,,84,,572.8,,70.8,,,M,,M,,M,,M,,M,,B,10.81,,7.15,,0.2,,993
CATM,1/3/2006 16:15,0.58,,82.7,,326.9,,70.3,,321.8,,10.08,,0.6,,3,,0,,,B,11.66,,7.3,,0.2,,993
CATM,1/3/2006 16:30,0.37,,81.3,,,B,,B,316.5,,7.83,,1.6,,3.2,,0,,,B,12.32,,7.52,,0.2,,993
CATM,1/3/2006 16:45,0.2,,79.3,,,B,,B,331.9,,6.97,,0.5,,2.8,,0,,,B,13.03,,7.79,,0.2,,993
CATM,1/3/2006 17:00,0.27,,81.3,,,B,,B,331.8,,12.9,,2,,2.9,,1,,,B,13.84,,,B,0.7,,993
CATM,1/3/2006 17:15,0.32,,81.2,,574.2,,49.2,,333.7,,12.26,,1.6,,2.6,,0.8,,,B,14.46,,8.44,,0.7,,993
